Location: Krasnoyarskiy Pitomnik
(51.1333°N, 71.6167°E)
Time: 09:31:58
(UTC+00:00)

Envisat - Pass Details

Date: 06 March 2024
Orbit: 762 x 764 km, 98.3° (Epoch: 21 April)

Event Time Altitude Azimuth Distance (km) Brightness Sun altitude
Rises 00:29:36 0° 4° (N) 3,245 6.4 -13.0°
Reaches altitude 10° 00:32:32 10° 347° (NNW) 2,313 5.4 -12.5°
Maximum altitude 00:35:58 19° 305° (NW) 1,789 4.5 -12.0°
Enters shadow 00:37:53 15° 277° (W) 1,967 4.5 -11.7°
